AV279 Weather Reports


time (UTC)temp
C
wind
direction
speed
KPH
gust
KPH
rain 1hr
cm
rain 24hr
cm
rain mn
cm
humidity
%
barometer
mb
20260905153919 20 45 3.2 8.0 0.00 0.00 0.00 62 1024.5
20260905152919 20 293 3.2 4.8 0.00 0.00 0.00 63 1024.4
20260905151920 20 270 3.2 4.8 0.00 0.00 0.00 64 1024.4
20260905150919 20 270 1.6 3.2 0.00 0.00 0.00 62 1024.5
20260905145920 20 338 3.2 8.0 0.00 0.00 0.00 61 1024.4
20260905144930 20 293 3.2 6.4 0.00 0.00 0.00 61 1024.2
20260905143920 20 270 1.6 3.2 0.00 0.00 0.00 61 1024.1
20260905142919 21 270 6.4 12.9 0.00 0.00 0.00 59 1024.1
20260905141919 20 225 1.6 3.2 0.00 0.00 0.00 61 1024.1
20260905140941 20 315 3.2 4.8 0.00 0.00 0.00 61 1024.2
20260905135919 20 315 3.2 4.8 0.00 0.00 0.00 63 1024.1
20260905134941 21 180 4.8 9.7 0.00 0.00 0.00 60 1024.1
20260905133931 21 270 4.8 9.7 0.00 0.00 0.00 59 1024.1
20260905132919 21 338 1.6 3.2 0.00 0.00 0.00 59 1024.1
20260905131930 22 248 1.6 3.2 0.00 0.00 0.00 59 1024.0
20260905130919 21 270 3.2 4.8 0.00 0.00 0.00 60 1024.1
20260905125919 21 270 6.4 12.9 0.00 0.00 0.00 59 1024.1
20260905124920 21 248 4.8 11.3 0.00 0.00 0.00 60 1024.0
20260905123951 21 293 4.8 9.7 0.00 0.00 0.00 60 1023.9
20260905122919 21 293 6.4 12.9 0.00 0.00 0.00 59 1023.9
20260905121919 22 23 4.8 11.3 0.00 0.00 0.00 59 1023.6
20260905120919 21 270 3.2 6.4 0.00 0.00 0.00 59 1023.8
20260905115919 22 270 4.8 12.9 0.00 0.00 0.00 61 1023.6
20260905114919 21 270 6.4 17.7 0.00 0.00 0.00 61 1023.6
20260905113919 22 315 3.2 9.7 0.00 0.00 0.00 63 1023.5
20260905112919 21 270 3.2 6.4 0.00 0.00 0.00 62 1023.5
20260905111919 22 248 4.8 6.4 0.00 0.00 0.00 61 1023.4
20260905110939 21 270 6.4 12.9 0.00 0.00 0.00 62 1023.5
20260905105930 21 293 1.6 3.2 0.00 0.00 0.00 64 1023.3
20260905104950 21 293 6.4 9.7 0.00 0.00 0.00 64 1023.3
20260905103941 21 293 6.4 14.5 0.00 0.00 0.00 63 1023.2
20260905102939 21 293 4.8 9.7 0.00 0.00 0.00 64 1023.2
20260905101951 21 270 3.2 4.8 0.00 0.00 0.00 67 1023.1
20260905100952 20 270 4.8 9.7 0.00 0.00 0.00 67 1023.0
20260905095919 20 270 4.8 9.7 0.00 0.00 0.00 66 1023.0
20260905094930 20 225 6.4 14.5 0.00 0.00 0.00 67 1022.8
20260905093930 20 315 8.0 17.7 0.00 0.00 0.00 66 1022.7
20260905092919 20 270 3.2 4.8 0.00 0.00 0.00 69 1022.7
20260905091950 20 293 6.4 11.3 0.00 0.00 0.00 68 1022.6
20260905090919 20 293 3.2 8.0 0.00 0.00 0.00 70 1022.5
20260905090010 20 225 1.6 4.8 0.00 0.00 0.00 72 1022.5
20260905084919 19 248 1.6 4.8 0.00 0.00 0.00 75 1022.4
20260905083919 18 248 4.8 9.7 0.00 0.00 0.00 76 1022.3
20260905082930 18 293 4.8 12.9 0.00 0.00 0.00 77 1022.2
20260905082001 18 293 6.4 12.9 0.00 0.00 0.00 78 1022.1
20260905081135 18 293 4.8 8.0 0.00 0.00 0.00 79 1022.0
20260905080219 17 315 1.6 4.8 0.00 0.00 0.00 80 1021.9
20260905075219 17 293 8.0 16.1 0.00 0.00 0.00 83 1021.8
20260905074239 16 270 3.2 9.7 0.00 0.00 0.00 86 1021.7
20260905073240 16 270 1.6 3.2 0.00 0.00 0.00 88 1021.5
20260905072219 15 225 3.2 4.8 0.00 0.00 0.00 89 1021.5
20260905071219 15 270 1.6 1.6 0.00 0.00 0.00 90 1021.3
20260905070219 15 203 3.2 4.8 0.00 0.00 0.00 90 1021.4
20260905065219 15 270 1.6 3.2 0.00 0.00 0.00 90 1021.1
20260905064229 14 270 3.2 6.4 0.00 0.00 0.00 90 1021.1
20260905063219 14 270 1.6 1.6 0.00 0.00 0.00 90 1020.9
20260905062219 13 248 3.2 4.8 0.00 0.00 0.00 91 1020.7
20260905061239 13 248 1.6 1.6 0.00 0.00 0.00 90 1020.7
20260905060219 13 270 1.6 3.2 0.00 0.00 0.00 90 1020.6
20260905055218 13 203 1.6 3.2 0.00 0.00 0.00 90 1020.5
20260905054219 13 248 1.6 3.2 0.00 0.00 0.00 91 1020.6
20260905053240 13 270 3.2 4.8 0.00 0.00 0.00 91 1020.4
20260905052229 13 270 1.6 4.8 0.00 0.03 0.00 91 1020.3
20260905051219 13 270 3.2 4.8 0.00 0.03 0.00 91 1020.3
20260905050219 13 248 1.6 3.2 0.00 0.03 0.00 91 1019.9
20260905045218 13 248 3.2 3.2 0.00 0.03 0.00 91 1019.9
20260905044238 13 0.0 0.0 0.00 0.03 0.00 90 1019.6
20260905043229 13 0.0 0.0 0.00 0.05 0.00 90 1019.6
20260905042229 13 248 1.6 3.2 0.00 0.05 0.00 90 1019.4
20260905040218 13 203 1.6 3.2 0.00 0.05 0.00 90 1019.3
20260905035219 13 270 1.6 3.2 0.00 0.05 0.00 90 1019.2
20260905034218 13 248 1.6 3.2 0.00 0.05 0.00 90 1019.0
20260905033218 13 0.0 1.6 0.00 0.05 0.00 90 1019.0
20260905032219 13 0.0 1.6 0.00 0.05 0.00 90 1018.9
20260905031219 13 248 3.2 3.2 0.00 0.05 0.00 90 1019.0
20260905030218 13 0.0 1.6 0.00 0.05 0.00 90 1018.7
20260905025231 13 0.0 0.0 0.00 0.05 0.00 89 1018.8
20260905024218 13 248 3.2 3.2 0.00 0.05 0.00 89 1018.7
20260905023218 13 225 3.2 4.8 0.00 0.05 0.00 89 1018.7
20260905022218 13 0.0 0.0 0.00 0.05 0.00 88 1018.7
20260905021301 13 0.0 0.0 0.00 0.05 0.00 88 1018.6
20260905020218 14 225 3.2 4.8 0.00 0.05 0.00 87 1018.5
20260905015229 14 225 1.6 3.2 0.00 0.05 0.00 87 1018.4
20260905014417 14 225 1.6 3.2 0.00 0.05 0.00 87 1018.4
20260905013840 14 225 3.2 4.8 0.00 0.05 0.00 87 1018.4
20260905012818 14 248 1.6 3.2 0.00 0.05 0.00 86 1018.4
20260905011829 15 225 1.6 3.2 0.00 0.05 0.00 86 1018.4
20260905010820 15 248 1.6 3.2 0.00 0.05 0.00 86 1018.3
20260905005838 15 0.0 0.0 0.00 0.05 0.00 86 1018.4
20260905004840 15 0.0 0.0 0.00 0.05 0.00 86 1018.4
20260905003818 15 293 1.6 3.2 0.00 0.05 0.00 85 1018.3
20260905002820 15 248 3.2 4.8 0.00 0.05 0.00 84 1018.3
20260905001909 15 225 3.2 4.8 0.00 0.05 0.00 84 1018.2
20260905000820 15 0.0 0.0 0.00 0.05 0.00 83 1018.1
20260904235818 15 0.0 1.6 0.00 0.05 0.05 82 1018.0
20260904234900 15 0.0 0.0 0.00 0.05 0.05 82 1017.8
20260904233829 15 248 1.6 3.2 0.00 0.05 0.05 81 1017.8
20260904232829 15 225 1.6 3.2 0.00 0.05 0.05 81 1017.8
20260904231819 16 225 1.6 3.2 0.00 0.05 0.05 80 1017.8
20260904230900 16 270 3.2 4.8 0.00 0.05 0.05 80 1017.8
20260904230015 16 248 3.2 9.7 0.00 0.05 0.05 80 1017.8
20260904225218 16 248 3.2 4.8 0.00 0.05 0.05 80 1017.8
20260904224218 16 270 1.6 4.8 0.00 0.05 0.05 79 1017.9
20260904223218 16 0.0 3.2 0.00 0.05 0.05 79 1017.8
20260904222218 16 248 1.6 3.2 0.00 0.05 0.05 78 1017.7
20260904221218 16 270 1.6 3.2 0.00 0.05 0.05 78 1017.7
20260904220218 16 0.0 1.6 0.00 0.05 0.05 78 1017.5
20260904215218 16 270 3.2 4.8 0.00 0.05 0.05 77 1017.6
20260904214249 16 225 1.6 4.8 0.00 0.05 0.05 77 1017.6
20260904213218 17 293 1.6 3.2 0.00 0.05 0.05 76 1017.6
20260904212218 17 0.0 0.0 0.00 0.05 0.05 75 1017.4
20260904211249 17 0.0 0.0 0.00 0.05 0.05 75 1017.2
20260904210249 18 0.0 0.0 0.00 0.05 0.05 73 1017.4
20260904205231 18 0.0 0.0 0.00 0.05 0.05 73 1017.2
20260904204218 18 0.0 3.2 0.00 0.05 0.05 72 1017.0
20260904203218 18 0.0 3.2 0.00 0.05 0.05 72 1016.8
20260904202220 18 0.0 0.0 0.00 0.05 0.05 73 1016.7
20260904201229 18 270 1.6 4.8 0.00 0.05 0.05 74 1016.9
20260904200218 18 248 1.6 4.8 0.00 0.05 0.05 74 1016.6
20260904195229 18 270 3.2 4.8 0.00 0.05 0.05 74 1016.4
20260904194229 18 270 1.6 3.2 0.00 0.05 0.05 73 1016.2
20260904193239 19 270 1.6 3.2 0.00 0.05 0.05 73 1016.1
20260904192300 19 293 3.2 4.8 0.00 0.05 0.05 74 1015.8
20260904191241 19 270 3.2 4.8 0.00 0.05 0.05 74 1015.8
20260904190240 19 203 4.8 6.4 0.00 0.05 0.05 77 1015.7
20260904185220 19 270 4.8 9.7 0.00 0.05 0.05 83 1015.7
20260904184220 19 248 1.6 3.2 0.00 0.05 0.05 86 1015.5
20260904183240 19 248 1.6 3.2 0.00 0.05 0.05 85 1015.5
20260904182306 20 225 3.2 6.4 0.00 0.05 0.05 85 1015.2
20260904181231 20 248 3.2 4.8 0.00 0.05 0.05 85 1015.3
20260904180250 20 270 3.2 6.4 0.00 0.05 0.05 84 1015.2
20260904175220 20 248 4.8 6.4 0.00 0.05 0.05 84 1015.2
20260904174240 20 248 3.2 6.4 0.00 0.05 0.05 84 1015.0
20260904173220 20 270 4.8 6.4 0.00 0.05 0.05 84 1015.0
20260904172220 20 270 3.2 6.4 0.00 0.05 0.05 84 1014.8
20260904171250 20 225 4.8 9.7 0.00 0.05 0.05 83 1014.7
20260904170241 20 248 4.8 8.0 0.00 0.05 0.05 83 1014.6
20260904165241 21 270 6.4 11.3 0.00 0.05 0.05 83 1014.6
20260904164320 21 270 9.7 17.7 0.00 0.05 0.05 82 1014.3
20260904163311 21 248 4.8 8.0 0.00 0.05 0.05 81 1014.4
20260904162230 21 270 8.0 12.9 0.00 0.05 0.05 81 1014.3
20260904161230 21 248 8.0 11.3 0.00 0.05 0.05 81 1014.1
20260904160220 21 293 8.0 14.5 0.00 0.05 0.05 81 1013.9
20260904155220 21 270 9.7 14.5 0.00 0.05 0.05 80 1013.9